Time,TemperatureF,DewpointF,PressureIn,WindDirection,WindDirectionDegrees,WindSpeedMPH,WindSpeedGustMPH,Humidity,HourlyPrecipIn,Conditions,Clouds,dailyrainin,SoftwareType,DateUTC
2013-05-11 06:44:00,62.8,61.0,29.81,SSW,198,8.0,12.0,94,0.00,,,0.17,weatherlink.com 1.10,2013-05-11 10:44:00,
2013-05-11 06:52:00,63.0,61.0,29.81,South,188,9.0,12.0,94,0.00,,,0.17,weatherlink.com 1.10,2013-05-11 10:52:00,
2013-05-11 07:07:00,63.3,61.0,29.81,SSW,203,9.0,14.0,93,0.00,,,0.17,weatherlink.com 1.10,2013-05-11 11:07:00,
2013-05-11 07:23:00,63.6,62.0,29.80,SW,223,8.0,11.0,93,0.00,,,0.17,weatherlink.com 1.10,2013-05-11 11:23:00,
2013-05-11 07:38:00,63.8,62.0,29.80,South,190,7.0,12.0,93,0.00,,,0.17,weatherlink.com 1.10,2013-05-11 11:38:00,
2013-05-11 07:53:00,64.3,62.0,29.80,SSW,199,7.0,11.0,93,0.00,,,0.17,weatherlink.com 1.10,2013-05-11 11:53:00,
2013-05-11 08:08:00,64.7,62.0,29.80,SSW,192,7.0,10.0,92,0.00,,,0.17,weatherlink.com 1.10,2013-05-11 12:08:00,
2013-05-11 08:23:00,64.8,63.0,29.80,SSW,211,4.0,10.0,92,0.00,,,0.17,weatherlink.com 1.10,2013-05-11 12:23:00,
2013-05-11 08:38:00,65.3,62.0,29.79,South,178,7.0,16.0,90,0.00,,,0.17,weatherlink.com 1.10,2013-05-11 12:38:00,
2013-05-11 08:53:00,65.6,62.0,29.79,SSW,213,11.0,17.0,89,0.00,,,0.17,weatherlink.com 1.10,2013-05-11 12:53:00,
2013-05-11 09:08:00,65.6,63.0,29.79,SW,215,4.0,12.0,90,0.00,,,0.17,weatherlink.com 1.10,2013-05-11 13:08:00,
2013-05-11 09:23:00,65.5,63.0,29.80,SSW,210,6.0,11.0,91,0.00,,,0.17,weatherlink.com 1.10,2013-05-11 13:23:00,
2013-05-11 09:38:00,66.0,63.0,29.79,SSW,212,7.0,8.0,90,0.00,,,0.17,weatherlink.com 1.10,2013-05-11 13:38:00,
2013-05-11 09:53:00,66.5,63.0,29.79,SW,229,6.0,11.0,88,0.01,,,0.18,weatherlink.com 1.10,2013-05-11 13:53:00,
2013-05-11 10:08:00,66.7,63.0,29.79,SW,214,5.0,15.0,88,0.01,,,0.18,weatherlink.com 1.10,2013-05-11 14:08:00,
2013-05-11 10:23:00,67.7,64.0,29.79,SW,228,11.0,16.0,87,0.01,,,0.18,weatherlink.com 1.10,2013-05-11 14:23:00,
2013-05-11 10:38:00,68.4,64.0,29.78,WSW,250,8.0,13.0,86,0.01,,,0.18,weatherlink.com 1.10,2013-05-11 14:38:00,
2013-05-11 10:53:00,69.0,64.0,29.79,SSW,204,10.0,11.0,84,0.00,,,0.18,weatherlink.com 1.10,2013-05-11 14:53:00,
2013-05-11 11:08:00,69.3,63.0,29.78,WSW,243,9.0,13.0,81,0.00,,,0.18,weatherlink.com 1.10,2013-05-11 15:08:00,
2013-05-11 11:23:00,69.6,64.0,29.78,SW,224,10.0,12.0,81,0.00,,,0.18,weatherlink.com 1.10,2013-05-11 15:23:00,
2013-05-11 11:38:00,69.4,64.0,29.78,WSW,256,4.0,10.0,82,0.00,,,0.18,weatherlink.com 1.10,2013-05-11 15:38:00,
2013-05-11 11:53:00,69.5,64.0,29.77,SW,228,3.0,9.0,82,0.00,,,0.18,weatherlink.com 1.10,2013-05-11 15:53:00,
2013-05-11 12:08:00,69.3,63.0,29.77,SW,233,6.0,10.0,80,0.00,,,0.18,weatherlink.com 1.10,2013-05-11 16:08:00,
2013-05-11 12:23:00,68.8,64.0,29.76,WSW,239,5.0,9.0,83,0.00,,,0.18,weatherlink.com 1.10,2013-05-11 16:23:00,
2013-05-11 12:38:00,68.5,64.0,29.76,SSW,204,5.0,8.0,85,0.00,,,0.18,weatherlink.com 1.10,2013-05-11 16:38:00,
2013-05-11 12:53:00,67.9,64.0,29.76,SW,236,4.0,8.0,88,0.02,,,0.20,weatherlink.com 1.10,2013-05-11 16:53:00,
2013-05-11 13:08:00,67.3,65.0,29.76,SW,231,3.0,7.0,91,0.04,,,0.22,weatherlink.com 1.10,2013-05-11 17:08:00,
2013-05-11 13:23:00,66.6,64.0,29.76,West,278,6.0,10.0,90,0.04,,,0.22,weatherlink.com 1.10,2013-05-11 17:23:00,
2013-05-11 13:38:00,65.7,63.0,29.76,West,267,7.0,10.0,91,0.05,,,0.23,weatherlink.com 1.10,2013-05-11 17:38:00,
2013-05-11 13:53:00,64.6,62.0,29.76,WNW,282,6.0,14.0,91,0.06,,,0.26,weatherlink.com 1.10,2013-05-11 17:53:00,
2013-05-11 14:08:00,63.9,62.0,29.75,SW,227,5.0,9.0,93,0.12,,,0.33,weatherlink.com 1.10,2013-05-11 18:08:00,
2013-05-11 14:23:00,64.5,63.0,29.74,SW,214,4.0,8.0,93,0.12,,,0.34,weatherlink.com 1.10,2013-05-11 18:23:00,
2013-05-11 14:38:00,66.1,63.0,29.74,SSW,213,6.0,9.0,90,0.12,,,0.34,weatherlink.com 1.10,2013-05-11 18:38:00,
2013-05-11 14:53:00,67.4,64.0,29.73,WSW,252,8.0,12.0,87,0.09,,,0.34,weatherlink.com 1.10,2013-05-11 18:53:00,
2013-05-11 15:08:00,68.6,64.0,29.74,South,186,8.0,9.0,86,0.01,,,0.34,weatherlink.com 1.10,2013-05-11 19:08:00,
2013-05-11 15:23:00,69.6,66.0,29.73,WSW,258,6.0,9.0,87,0.00,,,0.34,weatherlink.com 1.10,2013-05-11 19:23:00,
2013-05-11 15:38:00,70.3,65.0,29.72,WSW,252,7.0,9.0,84,0.00,,,0.34,weatherlink.com 1.10,2013-05-11 19:38:00,
2013-05-11 15:53:00,69.7,65.0,29.72,West,273,7.0,9.0,84,0.00,,,0.34,weatherlink.com 1.10,2013-05-11 19:53:00,
2013-05-11 16:08:00,69.9,64.0,29.71,West,264,2.0,7.0,82,0.00,,,0.34,weatherlink.com 1.10,2013-05-11 20:08:00,
2013-05-11 16:23:00,70.3,64.0,29.71,West,265,0.0,3.0,81,0.00,,,0.34,weatherlink.com 1.10,2013-05-11 20:23:00,
2013-05-11 16:38:00,70.3,64.0,29.71,West,273,2.0,6.0,81,0.00,,,0.34,weatherlink.com 1.10,2013-05-11 20:38:00,
2013-05-11 16:53:00,70.3,64.0,29.72,SW,236,4.0,7.0,80,0.00,,,0.34,weatherlink.com 1.10,2013-05-11 20:53:00,
2013-05-11 17:08:00,69.9,64.0,29.72,SW,228,5.0,6.0,80,0.00,,,0.34,weatherlink.com 1.10,2013-05-11 21:08:00,
2013-05-11 17:24:00,69.6,64.0,29.71,SSW,205,2.0,5.0,82,0.00,,,0.34,weatherlink.com 1.10,2013-05-11 21:24:00,
2013-05-11 17:39:00,69.2,65.0,29.73,SW,226,5.0,5.0,86,0.00,,,0.34,weatherlink.com 1.10,2013-05-11 21:39:00,
2013-05-11 17:54:00,69.0,65.0,29.73,WSW,257,5.0,6.0,87,0.00,,,0.34,weatherlink.com 1.10,2013-05-11 21:54:00,
2013-05-11 18:09:00,67.1,62.0,29.73,West,263,4.0,15.0,84,0.01,,,0.35,weatherlink.com 1.10,2013-05-11 22:09:00,
2013-05-11 18:23:00,66.6,63.0,29.72,ESE,112,0.0,8.0,87,0.01,,,0.35,weatherlink.com 1.10,2013-05-11 22:23:00,
2013-05-11 18:39:00,66.0,62.0,29.73,WNW,298,3.0,4.0,88,0.01,,,0.35,weatherlink.com 1.10,2013-05-11 22:39:00,
2013-05-11 18:54:00,65.1,62.0,29.73,NW,314,5.0,6.0,89,0.01,,,0.35,weatherlink.com 1.10,2013-05-11 22:54:00,
2013-05-11 19:09:00,64.8,61.0,29.73,NW,317,0.0,2.0,88,0.00,,,0.35,weatherlink.com 1.10,2013-05-11 23:09:00,
2013-05-11 19:24:00,64.7,62.0,29.73,NW,317,1.0,3.0,90,0.00,,,0.35,weatherlink.com 1.10,2013-05-11 23:24:00,
2013-05-11 19:39:00,64.5,62.0,29.73,NW,317,0.0,0.0,91,0.00,,,0.35,weatherlink.com 1.10,2013-05-11 23:39:00,
2013-05-11 19:54:00,64.3,62.0,29.73,NW,317,3.0,3.0,92,0.00,,,0.35,weatherlink.com 1.10,2013-05-11 23:54:00,
2013-05-11 20:09:00,63.6,61.0,29.74,North,349,0.0,3.0,92,0.00,,,0.35,weatherlink.com 1.10,2013-05-12 00:09:00,
2013-05-11 20:24:00,62.6,60.0,29.74,North,349,0.0,2.0,92,0.00,,,0.35,weatherlink.com 1.10,2013-05-12 00:24:00,
2013-05-11 20:39:00,62.1,60.0,29.74,North,349,0.0,0.0,93,0.00,,,0.35,weatherlink.com 1.10,2013-05-12 00:39:00,
2013-05-11 20:54:00,61.8,60.0,29.74,North,349,0.0,0.0,94,0.00,,,0.35,weatherlink.com 1.10,2013-05-12 00:54:00,
2013-05-11 21:09:00,61.4,60.0,29.74,North,349,0.0,0.0,95,0.00,,,0.35,weatherlink.com 1.10,2013-05-12 01:09:00,
2013-05-11 21:24:00,61.4,60.0,29.74,North,349,0.0,0.0,95,0.00,,,0.35,weatherlink.com 1.10,2013-05-12 01:24:00,
2013-05-11 21:39:00,61.1,60.0,29.75,NW,313,1.0,2.0,95,0.00,,,0.35,weatherlink.com 1.10,2013-05-12 01:39:00,
2013-05-11 21:54:00,61.0,60.0,29.75,NW,313,0.0,0.0,96,0.00,,,0.35,weatherlink.com 1.10,2013-05-12 01:54:00,
2013-05-11 22:09:00,60.6,60.0,29.75,WNW,296,0.0,2.0,96,0.00,,,0.35,weatherlink.com 1.10,2013-05-12 02:09:00,
2013-05-11 22:24:00,60.7,60.0,29.75,WNW,296,0.0,0.0,96,0.00,,,0.35,weatherlink.com 1.10,2013-05-12 02:24:00,
2013-05-11 22:39:00,60.6,60.0,29.77,WNW,296,1.0,2.0,96,0.00,,,0.35,weatherlink.com 1.10,2013-05-12 02:39:00,
2013-05-11 22:54:00,60.8,60.0,29.76,South,188,0.0,1.0,97,0.00,,,0.35,weatherlink.com 1.10,2013-05-12 02:54:00,
2013-05-11 23:09:00,61.3,61.0,29.76,South,188,0.0,1.0,97,0.00,,,0.35,weatherlink.com 1.10,2013-05-12 03:09:00,
2013-05-11 23:24:00,61.3,61.0,29.75,South,188,0.0,0.0,97,0.00,,,0.35,weatherlink.com 1.10,2013-05-12 03:24:00,
2013-05-11 23:39:00,61.4,59.0,29.75,WNW,296,1.0,2.0,93,0.00,,,0.35,weatherlink.com 1.10,2013-05-12 03:39:00,
2013-05-11 23:54:00,61.6,58.0,29.75,NW,304,0.0,2.0,89,0.00,,,0.35,weatherlink.com 1.10,2013-05-12 03:54:00,